When you browse on this site, cookies collect data to enhance your experience and personalize the content and advertising you see.
Visit our Privacy Policy to learn more. By continuing to use the site, you agree to this use of cookies and data.
  • în România
  • Lista ţărilor
  • Pe 7 zile
  • Temperatura apei
  • Hartă satelitară
  • Meteo pe hartă
  • Widget-uri
  • user-avatar
    Intrare

    Meteo pe oră la Puerto Ayacucho

    Astăzi, 19 Februarie, Marţi

    Timp Temperatura Precipitaţii Vânt Presiune Umiditate
    00:00 +27°C° 0 mm 1 m/s 752 mmHg 72%
    01:00 +27°C° 0 mm 1 m/s 752 mmHg 71%
    02:00 +27°C° 0 mm 1 m/s 752 mmHg 71%
    03:00 +27°C° 0 mm 1 m/s 752 mmHg 71%
    04:00 +27°C° 0 mm 1 m/s 752 mmHg 71%
    05:00 +27°C° 0 mm 1 m/s 752 mmHg 71%
    06:00 +27°C° 0 mm 1 m/s 752 mmHg 70%
    07:00 +28°C° 0 mm 1 m/s 753 mmHg 70%
    08:00 +29°C° 0 mm 1 m/s 753 mmHg 64%
    09:00 +31°C° 0 mm 1 m/s 753 mmHg 58%
    10:00 +32°C° 0 mm 1 m/s 754 mmHg 53%
    11:00 +34°C° 0 mm 1 m/s 753 mmHg 49%
    12:00 +35°C° 0 mm 1 m/s 752 mmHg 45%
    13:00 +36°C° 0 mm 1 m/s 751 mmHg 41%
    14:00 +36°C° 0 mm 1 m/s 751 mmHg 42%
    15:00 +36°C° 0 mm 1 m/s 750 mmHg 42%
    16:00 +35°C° 0 mm 1 m/s 749 mmHg 43%
    17:00 +34°C° 0 mm 1 m/s 750 mmHg 48%
    18:00 +32°C° 0 mm 2 m/s 750 mmHg 54%
    19:00 +30°C° 0 mm 2 m/s 751 mmHg 59%
    20:00 +30°C° 0 mm 2 m/s 751 mmHg 61%
    21:00 +29°C° 0 mm 2 m/s 751 mmHg 63%
    22:00 +29°C° 0 mm 1 m/s 752 mmHg 65%
    23:00 +28°C° 0 mm 1 m/s 752 mmHg 65%

    Mâine, 20 Februarie, Miercuri

    Timp Temperatura Precipitaţii Vânt Presiune Umiditate
    00:00 +28°C° 0 mm 1 m/s 751 mmHg 66%
    01:00 +28°C° 0 mm 1 m/s 751 mmHg 67%
    02:00 +27°C° 0 mm 1 m/s 751 mmHg 67%
    03:00 +27°C° 0 mm 1 m/s 751 mmHg 68%
    04:00 +27°C° 0 mm 1 m/s 751 mmHg 68%
    05:00 +27°C° 0 mm 1 m/s 751 mmHg 67%
    06:00 +27°C° 0 mm 1 m/s 752 mmHg 65%
    07:00 +28°C° 0 mm 1 m/s 752 mmHg 64%
    08:00 +30°C° 0 mm 2 m/s 752 mmHg 57%
    09:00 +32°C° 0 mm 2 m/s 753 mmHg 51%
    10:00 +35°C° 0 mm 2 m/s 753 mmHg 45%
    11:00 +36°C° 0 mm 2 m/s 752 mmHg 43%
    12:00 +37°C° 0 mm 2 m/s 751 mmHg 40%
    13:00 +38°C° 0 mm 2 m/s 750 mmHg 38%
    14:00 +37°C° 0 mm 1 m/s 749 mmHg 38%
    15:00 +37°C° 0 mm 1 m/s 748 mmHg 39%
    16:00 +37°C° 0 mm 1 m/s 748 mmHg 39%
    17:00 +35°C° 0 mm 1 m/s 748 mmHg 45%
    18:00 +34°C° 0 mm 2 m/s 749 mmHg 51%
    19:00 +32°C° 0 mm 2 m/s 750 mmHg 57%
    20:00 +31°C° 0 mm 2 m/s 750 mmHg 58%
    21:00 +30°C° 0 mm 2 m/s 751 mmHg 60%
    22:00 +30°C° 0 mm 2 m/s 751 mmHg 61%
    23:00 +29°C° 0 mm 2 m/s 751 mmHg 62%

    Poimâine, 21 Februarie, Joi

    Timp Temperatura Precipitaţii Vânt Presiune Umiditate
    00:00 +29°C° 0 mm 2 m/s 751 mmHg 63%
    01:00 +28°C° 0 mm 2 m/s 750 mmHg 64%
    02:00 +28°C° 0 mm 2 m/s 750 mmHg 65%
    03:00 +28°C° 0 mm 2 m/s 750 mmHg 65%
    04:00 +28°C° 0 mm 2 m/s 750 mmHg 65%
    05:00 +28°C° 0 mm 1 m/s 751 mmHg 64%
    06:00 +28°C° 0 mm 1 m/s 751 mmHg 64%
    07:00 +29°C° 0 mm 1 m/s 752 mmHg 63%
    08:00 +31°C° 0 mm 1 m/s 752 mmHg 58%
    09:00 +32°C° 0 mm 1 m/s 753 mmHg 53%
    10:00 +35°C° 0 mm 2 m/s 753 mmHg 47%
    11:00 +35°C° 0.1 mm 1 m/s 752 mmHg 46%
    12:00 +36°C° 0.1 mm 1 m/s 751 mmHg 45%
    13:00 +37°C° 0.1 mm 1 m/s 750 mmHg 44%
    14:00 +36°C° 0.4 mm 1 m/s 750 mmHg 46%
    15:00 +37°C° 0.4 mm 2 m/s 749 mmHg 48%
    16:00 +36°C° 0.4 mm 2 m/s 749 mmHg 51%
    17:00 +35°C° 0.1 mm 2 m/s 749 mmHg 56%
    18:00 +32°C° 0.1 mm 2 m/s 749 mmHg 61%
    19:00 +31°C° 0.1 mm 3 m/s 750 mmHg 66%
    20:00 +30°C° 0 mm 2 m/s 750 mmHg 66%
    21:00 +30°C° 0 mm 2 m/s 751 mmHg 66%
    22:00 +30°C° 0 mm 1 m/s 751 mmHg 66%
    23:00 +29°C° 0 mm 1 m/s 751 mmHg 66%

    22 Februarie, Vineri

    Timp Temperatura Precipitaţii Vânt Presiune Umiditate
    00:00 +29°C° 0 mm 1 m/s 751 mmHg 67%
    01:00 +29°C° 0 mm 1 m/s 751 mmHg 67%
    02:00 +28°C° 0 mm 1 m/s 751 mmHg 68%
    03:00 +28°C° 0 mm 1 m/s 750 mmHg 68%
    04:00 +28°C° 0 mm 1 m/s 750 mmHg 69%
    05:00 +28°C° 0 mm 1 m/s 751 mmHg 68%
    06:00 +29°C° 0 mm 1 m/s 752 mmHg 67%
    07:00 +29°C° 0 mm 1 m/s 752 mmHg 65%
    08:00 +31°C° 0 mm 1 m/s 752 mmHg 61%
    09:00 +32°C° 0 mm 1 m/s 752 mmHg 57%
    10:00 +34°C° 0 mm 1 m/s 753 mmHg 52%
    11:00 +35°C° 0.3 mm 1 m/s 752 mmHg 51%
    12:00 +36°C° 0.3 mm 1 m/s 751 mmHg 49%
    13:00 +36°C° 0.3 mm 1 m/s 750 mmHg 48%
    14:00 +37°C° 0.3 mm 2 m/s 750 mmHg 51%
    15:00 +36°C° 0.3 mm 2 m/s 749 mmHg 54%
    16:00 +36°C° 0.3 mm 3 m/s 749 mmHg 57%
    17:00 +34°C° 0.2 mm 3 m/s 749 mmHg 62%
    18:00 +33°C° 0.2 mm 3 m/s 750 mmHg 67%
    19:00 +30°C° 0.2 mm 3 m/s 751 mmHg 72%
    20:00 +29°C° 0.8 mm 2 m/s 751 mmHg 75%
    21:00 +29°C° 0.8 mm 2 m/s 752 mmHg 79%
    22:00 +28°C° 0.8 mm 2 m/s 752 mmHg 83%
    23:00 +28°C° 0.5 mm 1 m/s 752 mmHg 83%

    23 Februarie, Sâmbătă

    Timp Temperatura Precipitaţii Vânt Presiune Umiditate
    00:00 +28°C° 0.5 mm 1 m/s 752 mmHg 83%
    01:00 +27°C° 0.5 mm 1 m/s 751 mmHg 83%
    02:00 +27°C° 0.2 mm 1 m/s 751 mmHg 82%
    03:00 +27°C° 0.2 mm 1 m/s 751 mmHg 82%
    04:00 +27°C° 0.2 mm 1 m/s 751 mmHg 81%
    05:00 +27°C° 0 mm 1 m/s 752 mmHg 78%
    06:00 +27°C° 0 mm 1 m/s 752 mmHg 76%
    07:00 +28°C° 0 mm 1 m/s 753 mmHg 73%
    08:00 +29°C° 0 mm 1 m/s 753 mmHg 66%
    09:00 +31°C° 0 mm 1 m/s 753 mmHg 59%
    10:00 +32°C° 0 mm 2 m/s 753 mmHg 52%
    11:00 +35°C° 0 mm 2 m/s 752 mmHg 48%
    12:00 +36°C° 0 mm 2 m/s 751 mmHg 44%
    13:00 +37°C° 0 mm 2 m/s 750 mmHg 40%
    14:00 +37°C° 0 mm 2 m/s 749 mmHg 38%
    15:00 +38°C° 0 mm 2 m/s 749 mmHg 37%
    16:00 +38°C° 0 mm 2 m/s 748 mmHg 35%
    17:00 +36°C° 0 mm 2 m/s 749 mmHg 39%
    18:00 +34°C° 0 mm 2 m/s 749 mmHg 43%
    19:00 +31°C° 0 mm 2 m/s 750 mmHg 47%
    20:00 +30°C° 0 mm 2 m/s 750 mmHg 49%
    21:00 +29°C° 0 mm 2 m/s 751 mmHg 51%
    22:00 +29°C° 0 mm 3 m/s 751 mmHg 53%
    23:00 +28°C° 0 mm 3 m/s 751 mmHg 53%

    24 Februarie, Duminică

    Timp Temperatura Precipitaţii Vânt Presiune Umiditate
    00:00 +28°C° 0 mm 3 m/s 751 mmHg 53%
    01:00 +27°C° 0 mm 3 m/s 750 mmHg 54%
    02:00 +27°C° 0 mm 3 m/s 751 mmHg 53%
    03:00 +27°C° 0 mm 3 m/s 751 mmHg 52%
    04:00 +26°C° 0 mm 4 m/s 751 mmHg 52%
    05:00 +26°C° 0 mm 4 m/s 751 mmHg 54%
    06:00 +27°C° 0 mm 4 m/s 752 mmHg 57%
    07:00 +27°C° 0 mm 4 m/s 752 mmHg 60%
    08:00 +29°C° 0 mm 4 m/s 752 mmHg 53%
    09:00 +33°C° 0 mm 4 m/s 752 mmHg 46%
    10:00 +36°C° 0 mm 4 m/s 752 mmHg 39%
    11:00 +37°C° 0 mm 4 m/s 751 mmHg 37%
    12:00 +38°C° 0 mm 4 m/s 750 mmHg 35%
    13:00 +39°C° 0 mm 3 m/s 749 mmHg 32%
    14:00 +39°C° 0 mm 3 m/s 749 mmHg 32%
    15:00 +38°C° 0 mm 3 m/s 748 mmHg 32%
    16:00 +38°C° 0 mm 3 m/s 747 mmHg 32%
    17:00 +36°C° 0 mm 3 m/s 748 mmHg 37%
    18:00 +34°C° 0 mm 2 m/s 748 mmHg 43%
    19:00 +31°C° 0 mm 2 m/s 749 mmHg 48%
    20:00 +30°C° 0 mm 3 m/s 749 mmHg 50%
    21:00 +30°C° 0 mm 3 m/s 750 mmHg 51%
    22:00 +29°C° 0 mm 3 m/s 750 mmHg 53%
    23:00 +28°C° 0 mm 3 m/s 750 mmHg 53%
    Arată mai mult